• în România
  • Lista ţărilor
  • Pe 7 zile
  • Temperatura apei
  • Hartă satelitară
  • Meteo pe hartă
  • Widget-uri
  • user-avatar
    Intrare

    Meteo pe oră la Primorsko

    Astăzi, 19 Septembrie, Miercuri

    Timp Temperatura Precipitaţii Vânt Presiune Umiditate
    00:00 +17°C° 0 mm 4 m/s 766 mmHg 84%
    01:00 +17°C° 0 mm 4 m/s 766 mmHg 86%
    02:00 +17°C° 0 mm 4 m/s 766 mmHg 88%
    03:00 +17°C° 0 mm 4 m/s 766 mmHg 88%
    04:00 +17°C° 0 mm 4 m/s 766 mmHg 89%
    05:00 +17°C° 0 mm 4 m/s 766 mmHg 90%
    06:00 +18°C° 0 mm 4 m/s 766 mmHg 83%
    07:00 +20°C° 0 mm 5 m/s 766 mmHg 76%
    08:00 +21°C° 0 mm 5 m/s 766 mmHg 69%
    09:00 +22°C° 0 mm 5 m/s 766 mmHg 62%
    10:00 +25°C° 0 mm 5 m/s 766 mmHg 56%
    11:00 +26°C° 0 mm 6 m/s 766 mmHg 50%
    12:00 +26°C° 0 mm 6 m/s 765 mmHg 48%
    13:00 +26°C° 0 mm 6 m/s 765 mmHg 47%
    14:00 +27°C° 0 mm 6 m/s 765 mmHg 46%
    15:00 +26°C° 0 mm 6 m/s 765 mmHg 50%
    16:00 +24°C° 0 mm 6 m/s 765 mmHg 54%
    17:00 +23°C° 0 mm 6 m/s 764 mmHg 58%
    18:00 +22°C° 0 mm 5 m/s 765 mmHg 66%
    19:00 +20°C° 0 mm 5 m/s 765 mmHg 73%
    20:00 +19°C° 0 mm 5 m/s 765 mmHg 81%
    21:00 +19°C° 0 mm 5 m/s 765 mmHg 83%
    22:00 +18°C° 0 mm 4 m/s 765 mmHg 84%
    23:00 +18°C° 0 mm 4 m/s 765 mmHg 86%

    Mâine, 20 Septembrie, Joi

    Timp Temperatura Precipitaţii Vânt Presiune Umiditate
    00:00 +18°C° 0 mm 4 m/s 765 mmHg 88%
    01:00 +17°C° 0 mm 4 m/s 765 mmHg 89%
    02:00 +17°C° 0 mm 4 m/s 765 mmHg 91%
    03:00 +17°C° 0 mm 4 m/s 764 mmHg 91%
    04:00 +17°C° 0 mm 4 m/s 764 mmHg 92%
    05:00 +17°C° 0 mm 4 m/s 764 mmHg 92%
    06:00 +17°C° 0 mm 5 m/s 764 mmHg 86%
    07:00 +20°C° 0 mm 5 m/s 764 mmHg 80%
    08:00 +21°C° 0 mm 6 m/s 764 mmHg 74%
    09:00 +23°C° 0 mm 6 m/s 764 mmHg 68%
    10:00 +24°C° 0 mm 6 m/s 764 mmHg 62%
    11:00 +27°C° 0 mm 6 m/s 764 mmHg 55%
    12:00 +27°C° 0 mm 6 m/s 764 mmHg 54%
    13:00 +28°C° 0 mm 6 m/s 763 mmHg 53%
    14:00 +28°C° 0 mm 6 m/s 763 mmHg 51%
    15:00 +27°C° 0 mm 6 m/s 763 mmHg 55%
    16:00 +26°C° 0 mm 6 m/s 763 mmHg 58%
    17:00 +24°C° 0 mm 6 m/s 763 mmHg 62%
    18:00 +23°C° 0 mm 5 m/s 763 mmHg 70%
    19:00 +22°C° 0 mm 5 m/s 763 mmHg 78%
    20:00 +20°C° 0 mm 5 m/s 763 mmHg 86%
    21:00 +20°C° 0 mm 4 m/s 763 mmHg 88%
    22:00 +20°C° 0 mm 4 m/s 763 mmHg 89%
    23:00 +19°C° 0 mm 4 m/s 763 mmHg 90%

    Poimâine, 21 Septembrie, Vineri

    Timp Temperatura Precipitaţii Vânt Presiune Umiditate
    00:00 +19°C° 0 mm 4 m/s 763 mmHg 91%
    01:00 +19°C° 0 mm 4 m/s 763 mmHg 91%
    02:00 +19°C° 0 mm 4 m/s 763 mmHg 92%
    03:00 +18°C° 0 mm 4 m/s 763 mmHg 92%
    04:00 +18°C° 0 mm 4 m/s 763 mmHg 92%
    05:00 +18°C° 0 mm 4 m/s 763 mmHg 92%
    06:00 +19°C° 0 mm 4 m/s 763 mmHg 86%
    07:00 +20°C° 0 mm 4 m/s 763 mmHg 80%
    08:00 +22°C° 0 mm 5 m/s 763 mmHg 74%
    09:00 +23°C° 0 mm 5 m/s 763 mmHg 65%
    10:00 +26°C° 0 mm 5 m/s 763 mmHg 57%
    11:00 +28°C° 0 mm 5 m/s 763 mmHg 49%
    12:00 +28°C° 0 mm 5 m/s 763 mmHg 47%
    13:00 +29°C° 0 mm 5 m/s 763 mmHg 46%
    14:00 +29°C° 0 mm 5 m/s 762 mmHg 45%
    15:00 +28°C° 0 mm 5 m/s 762 mmHg 49%
    16:00 +27°C° 0 mm 4 m/s 762 mmHg 53%
    17:00 +26°C° 0 mm 4 m/s 762 mmHg 57%
    18:00 +25°C° 0 mm 4 m/s 762 mmHg 67%
    19:00 +22°C° 0 mm 3 m/s 763 mmHg 77%
    20:00 +20°C° 0 mm 3 m/s 763 mmHg 87%
    21:00 +20°C° 0 mm 2 m/s 763 mmHg 89%
    22:00 +20°C° 0 mm 2 m/s 763 mmHg 90%
    23:00 +19°C° 0 mm 2 m/s 763 mmHg 91%

    22 Septembrie, Sâmbătă

    Timp Temperatura Precipitaţii Vânt Presiune Umiditate
    00:00 +19°C° 0 mm 2 m/s 763 mmHg 91%
    01:00 +19°C° 0 mm 2 m/s 763 mmHg 92%
    02:00 +18°C° 0 mm 2 m/s 762 mmHg 92%
    03:00 +18°C° 0 mm 2 m/s 762 mmHg 92%
    04:00 +18°C° 0 mm 2 m/s 762 mmHg 92%
    05:00 +18°C° 0 mm 2 m/s 762 mmHg 92%
    06:00 +19°C° 0 mm 2 m/s 762 mmHg 85%
    07:00 +20°C° 0 mm 2 m/s 762 mmHg 79%
    08:00 +23°C° 0 mm 2 m/s 763 mmHg 72%
    09:00 +25°C° 0 mm 2 m/s 763 mmHg 62%
    10:00 +27°C° 0 mm 2 m/s 763 mmHg 51%
    11:00 +29°C° 0 mm 3 m/s 763 mmHg 40%
    12:00 +29°C° 0 mm 3 m/s 762 mmHg 38%
    13:00 +30°C° 0 mm 3 m/s 762 mmHg 36%
    14:00 +31°C° 0 mm 3 m/s 761 mmHg 34%
    15:00 +30°C° 0 mm 3 m/s 761 mmHg 38%
    16:00 +29°C° 0 mm 3 m/s 761 mmHg 41%
    17:00 +28°C° 0 mm 3 m/s 761 mmHg 45%
    18:00 +26°C° 0 mm 2 m/s 761 mmHg 54%
    19:00 +23°C° 0 mm 2 m/s 761 mmHg 63%
    20:00 +20°C° 0 mm 2 m/s 762 mmHg 72%
    21:00 +21°C° 0 mm 1 m/s 762 mmHg 72%
    22:00 +21°C° 0 mm 1 m/s 762 mmHg 72%
    23:00 +20°C° 0 mm 1 m/s 762 mmHg 71%

    23 Septembrie, Duminică

    Timp Temperatura Precipitaţii Vânt Presiune Umiditate
    00:00 +20°C° 0 mm 1 m/s 762 mmHg 70%
    01:00 +20°C° 0 mm 1 m/s 761 mmHg 69%
    02:00 +20°C° 0 mm 1 m/s 761 mmHg 68%
    03:00 +20°C° 0 mm 1 m/s 761 mmHg 67%
    04:00 +19°C° 0 mm 1 m/s 761 mmHg 66%
    05:00 +18°C° 0 mm 2 m/s 761 mmHg 65%
    06:00 +20°C° 0 mm 2 m/s 761 mmHg 60%
    07:00 +23°C° 0 mm 2 m/s 762 mmHg 56%
    08:00 +24°C° 0 mm 2 m/s 762 mmHg 51%
    09:00 +26°C° 0 mm 2 m/s 762 mmHg 44%
    10:00 +29°C° 0 mm 2 m/s 762 mmHg 38%
    11:00 +31°C° 0 mm 2 m/s 762 mmHg 31%
    12:00 +32°C° 0 mm 2 m/s 762 mmHg 30%
    13:00 +33°C° 0 mm 3 m/s 762 mmHg 29%
    14:00 +34°C° 0 mm 3 m/s 761 mmHg 28%
    15:00 +33°C° 0 mm 4 m/s 762 mmHg 32%
    16:00 +30°C° 0 mm 5 m/s 762 mmHg 36%
    17:00 +29°C° 0 mm 7 m/s 762 mmHg 40%
    18:00 +27°C° 0 mm 7 m/s 763 mmHg 51%
    19:00 +23°C° 0 mm 7 m/s 763 mmHg 63%
    20:00 +21°C° 0 mm 6 m/s 763 mmHg 74%
    21:00 +20°C° 0 mm 6 m/s 764 mmHg 75%
    22:00 +20°C° 0 mm 6 m/s 764 mmHg 76%
    23:00 +20°C° 0 mm 5 m/s 764 mmHg 77%

    24 Septembrie, Luni

    Timp Temperatura Precipitaţii Vânt Presiune Umiditate
    00:00 +19°C° 0 mm 5 m/s 764 mmHg 78%
    01:00 +19°C° 0 mm 5 m/s 764 mmHg 78%
    02:00 +18°C° 0 mm 4 m/s 763 mmHg 79%
    03:00 +18°C° 0 mm 4 m/s 763 mmHg 79%
    04:00 +18°C° 0 mm 4 m/s 763 mmHg 79%
    05:00 +18°C° 0 mm 4 m/s 763 mmHg 80%
    06:00 +19°C° 0 mm 4 m/s 763 mmHg 76%
    07:00 +20°C° 0 mm 4 m/s 763 mmHg 72%
    08:00 +21°C° 0 mm 4 m/s 763 mmHg 68%
    09:00 +23°C° 0 mm 4 m/s 762 mmHg 63%
    10:00 +25°C° 0 mm 3 m/s 762 mmHg 58%
    11:00 +27°C° 0 mm 3 m/s 762 mmHg 53%
    12:00 +28°C° 0 mm 4 m/s 761 mmHg 51%
    13:00 +28°C° 0 mm 4 m/s 760 mmHg 49%
    14:00 +29°C° 0 mm 4 m/s 760 mmHg 47%
    15:00 +28°C° 0 mm 4 m/s 759 mmHg 52%
    16:00 +27°C° 0 mm 5 m/s 759 mmHg 56%
    17:00 +26°C° 0 mm 5 m/s 759 mmHg 61%
    18:00 +23°C° 0 mm 5 m/s 758 mmHg 70%
    19:00 +22°C° 0 mm 5 m/s 758 mmHg 79%
    20:00 +20°C° 0 mm 5 m/s 758 mmHg 88%
    21:00 +20°C° 0 mm 4 m/s 758 mmHg 89%
    22:00 +19°C° 0 mm 4 m/s 758 mmHg 90%
    23:00 +19°C° 0 mm 4 m/s 758 mmHg 92%
    Arată mai mult